Home > Weather > Houston > Past weeks

Flag for USA Past Weather in Houston, Texas, USA — Yesterday and Last 2 Weeks

Now
88 °F

Thunderstorms. Partly sunny.


Feels Like: 97 °F
Forecast: 78 / 90 °F
Wind: 6 mph from Southeast

Location: Houston Hobby Airport

Current Time: Aug 25, 2016 at 1:41:39 PM

Latest Report: Aug 25, 2016 at 12:53 PM


Visibility: 10 mi

Pressure: 30.06 "Hg

Humidity: 63%

Dew Point: 74 °F

Location of HoustonLocation

Past Weather in Houston — Graph

°F

Houston Temperature Yesterday

Maximum temperature yesterday: 93 °F (at 12:53 PM)
Minimum temperature yesterday: 78 °F (at 4:53 AM)
Average temperature yesterday: 84 °F

High & Low Weather Summary for the Past Weeks

 TemperatureHumidityPressure
High98 °F (Aug 10, 3:53 PM)100% (Aug 13, 8:53 PM)30.18 "Hg (Aug 13, 8:53 PM)
Low74 °F (Aug 21, 6:53 AM)40% (Aug 10, 3:53 PM)29.72 "Hg (Aug 13, 4:53 PM)
Average82 °F82%29.99 "Hg
* Reported Aug 10 11:53 AM — Aug 25 11:53 AM, Houston, Weather by CustomWeather, © 2016

Note: Actual official high and low records may vary slightly from our data, if they occured in-between our weather recording intervals... More about our weather records

Advertising

Houston Weather History for the Previous 24 Hours

Scroll right to see more
 ConditionsComfort  
Time TempWeatherWind HumidityBarometerVisibility
11:53 AM
Thu, Aug 25
89 °FPartly sunny.3 mph65%30.08 "Hg10 mi
10:53 AM87 °FBroken clouds.3 mph69%30.09 "Hg10 mi
9:53 AM85 °FBroken clouds.5 mph77%30.09 "Hg10 mi
8:53 AM83 °FPartly sunny.5 mph82%30.08 "Hg10 mi
7:53 AM80 °FPassing clouds.No wind90%30.08 "Hg10 mi
6:53 AM79 °FPassing clouds.3 mph90%30.06 "Hg10 mi
5:53 AM78 °FPassing clouds.No wind93%30.06 "Hg10 mi
4:53 AM79 °FPassing clouds.No wind88%30.05 "Hg10 mi
3:53 AM79 °FPassing clouds.No wind88%30.06 "Hg10 mi
2:53 AM79 °FPassing clouds.6 mph90%30.07 "Hg10 mi
1:53 AM79 °FPassing clouds.No wind90%30.06 "Hg10 mi
12:53 AM79 °FPassing clouds.No wind88%30.07 "Hg10 mi
11:53 PM
Wed, Aug 24
81 °FPassing clouds.3 mph82%30.08 "Hg10 mi
10:53 PM81 °FPassing clouds.5 mph82%30.08 "Hg10 mi
9:53 PM79 °FPassing clouds.3 mph88%30.08 "Hg10 mi
8:53 PM80 °FPassing clouds.6 mph87%30.07 "Hg10 mi
7:53 PM82 °FScattered clouds.7 mph82%30.06 "Hg10 mi
6:53 PM86 °FScattered clouds.9 mph72%30.06 "Hg10 mi
5:53 PM90 °FBroken clouds.10 mph66%30.05 "Hg10 mi
4:53 PM89 °FThunderstorms. Broken clouds.9 mph65%30.06 "Hg10 mi
3:53 PM92 °FBroken clouds.9 mph62%30.07 "Hg10 mi
2:53 PM92 °FPartly sunny.13 mph60%30.09 "Hg10 mi
1:53 PM90 °FLight rain. Broken clouds.10 mph70%30.11 "Hg10 mi
Weather by CustomWeather, © 2016

See weather overviewHow to use our weather pages